When you browse on this site, cookies collect data to enhance your experience and personalize the content and advertising you see.
Visit our Privacy Policy to learn more. By continuing to use the site, you agree to this use of cookies and data.
  • In United Kingdom
  • List of Countries
  • For 7 days
  • Water Temperature
  • Weather Map
  • Weather Widgets
  • user-avatar
    Login

    Hourly Weather Calinesti

    Today, 6 December, Friday

    Time Temperature Precipitation Wind Pressure Humidity
    00:00 -2°C° 0 mm 2 mps 747 mmHg 65%
    01:00 -2°C° 0 mm 2 mps 747 mmHg 64%
    02:00 -2°C° 0 mm 2 mps 747 mmHg 63%
    03:00 -2°C° 0 mm 2 mps 746 mmHg 63%
    04:00 -2°C° 0 mm 2 mps 746 mmHg 62%
    05:00 -2°C° 0 mm 2 mps 745 mmHg 62%
    06:00 -2°C° 0 mm 2 mps 745 mmHg 62%
    07:00 -2°C° 0 mm 2 mps 746 mmHg 61%
    08:00 -2°C° 0 mm 2 mps 746 mmHg 61%
    09:00 +1°C° 0 mm 2 mps 746 mmHg 55%
    10:00 +2°C° 0 mm 2 mps 745 mmHg 50%
    11:00 +4°C° 0 mm 2 mps 745 mmHg 44%
    12:00 +5°C° 0 mm 2 mps 745 mmHg 45%
    13:00 +4°C° 0 mm 3 mps 744 mmHg 46%
    14:00 +5°C° 0 mm 3 mps 744 mmHg 47%
    15:00 +4°C° 0 mm 2 mps 744 mmHg 54%
    16:00 +3°C° 0 mm 2 mps 743 mmHg 61%
    17:00 +2°C° 0 mm 2 mps 743 mmHg 67%
    18:00 +1°C° 0 mm 2 mps 743 mmHg 69%
    19:00 +1°C° 0 mm 2 mps 743 mmHg 71%
    20:00 +1°C° 0 mm 2 mps 743 mmHg 73%
    21:00 +1°C° 0 mm 2 mps 743 mmHg 72%
    22:00 -1°C° 0 mm 2 mps 743 mmHg 71%
    23:00 -1°C° 0 mm 2 mps 742 mmHg 71%

    Tomorrow, 7 December, Saturday

    Time Temperature Precipitation Wind Pressure Humidity
    00:00 +1°C° 0 mm 2 mps 742 mmHg 69%
    01:00 +1°C° 0 mm 2 mps 742 mmHg 67%
    02:00 +1°C° 0 mm 2 mps 742 mmHg 65%
    03:00 +1°C° 0 mm 2 mps 741 mmHg 63%
    04:00 +1°C° 0 mm 2 mps 741 mmHg 61%
    05:00 +1°C° 0 mm 2 mps 740 mmHg 59%
    06:00 +1°C° 0 mm 2 mps 740 mmHg 58%
    07:00 +1°C° 0 mm 2 mps 740 mmHg 57%
    08:00 +2°C° 0 mm 2 mps 740 mmHg 56%
    09:00 +3°C° 0 mm 2 mps 740 mmHg 55%
    10:00 +6°C° 0 mm 1 mps 740 mmHg 54%
    11:00 +7°C° 0 mm 1 mps 739 mmHg 54%
    12:00 +8°C° 0 mm 1 mps 739 mmHg 55%
    13:00 +8°C° 0 mm 2 mps 739 mmHg 57%
    14:00 +8°C° 0 mm 2 mps 738 mmHg 59%
    15:00 +7°C° 0 mm 2 mps 738 mmHg 63%
    16:00 +6°C° 0 mm 2 mps 738 mmHg 68%
    17:00 +6°C° 0 mm 1 mps 738 mmHg 73%
    18:00 +6°C° 0 mm 1 mps 738 mmHg 76%
    19:00 +6°C° 0 mm 1 mps 738 mmHg 78%
    20:00 +6°C° 0 mm 1 mps 738 mmHg 81%
    21:00 +5°C° 0 mm 2 mps 739 mmHg 82%
    22:00 +5°C° 0 mm 2 mps 739 mmHg 83%
    23:00 +5°C° 0 mm 2 mps 739 mmHg 83%

    Day after tomorrow, 8 December, Sunday

    Time Temperature Precipitation Wind Pressure Humidity
    00:00 +5°C° 0 mm 2 mps 739 mmHg 83%
    01:00 +5°C° 0 mm 2 mps 739 mmHg 83%
    02:00 +5°C° 0 mm 2 mps 739 mmHg 83%
    03:00 +4°C° 0 mm 2 mps 739 mmHg 83%
    04:00 +4°C° 0 mm 2 mps 739 mmHg 82%
    05:00 +4°C° 0 mm 2 mps 739 mmHg 82%
    06:00 +4°C° 0 mm 2 mps 739 mmHg 81%
    07:00 +5°C° 0 mm 1 mps 739 mmHg 81%
    08:00 +5°C° 0 mm 1 mps 739 mmHg 81%
    09:00 +6°C° 0 mm 1 mps 740 mmHg 74%
    10:00 +8°C° 0 mm 1 mps 740 mmHg 68%
    11:00 +9°C° 0 mm 1 mps 740 mmHg 61%
    12:00 +10°C° 0 mm 1 mps 740 mmHg 59%
    13:00 +11°C° 0 mm 1 mps 740 mmHg 57%
    14:00 +11°C° 0 mm 1 mps 740 mmHg 55%
    15:00 +10°C° 0 mm 1 mps 740 mmHg 61%
    16:00 +9°C° 0 mm 1 mps 740 mmHg 67%
    17:00 +6°C° 0 mm 0 mps 740 mmHg 72%
    18:00 +7°C° 0 mm 1 mps 740 mmHg 74%
    19:00 +7°C° 0 mm 1 mps 740 mmHg 76%
    20:00 +6°C° 0 mm 1 mps 740 mmHg 78%
    21:00 +6°C° 0 mm 1 mps 740 mmHg 79%
    22:00 +5°C° 0 mm 1 mps 740 mmHg 80%
    23:00 +5°C° 0 mm 1 mps 740 mmHg 81%

    9 December, Monday

    Time Temperature Precipitation Wind Pressure Humidity
    00:00 +5°C° 0 mm 1 mps 739 mmHg 80%
    01:00 +5°C° 0 mm 1 mps 739 mmHg 80%
    02:00 +4°C° 0 mm 1 mps 738 mmHg 80%
    03:00 +4°C° 0 mm 1 mps 738 mmHg 80%
    04:00 +4°C° 0 mm 1 mps 737 mmHg 80%
    05:00 +4°C° 0 mm 1 mps 737 mmHg 80%
    06:00 +4°C° 0 mm 1 mps 737 mmHg 80%
    07:00 +4°C° 0 mm 1 mps 737 mmHg 80%
    08:00 +4°C° 0 mm 1 mps 736 mmHg 80%
    09:00 +5°C° 0 mm 1 mps 736 mmHg 74%
    10:00 +6°C° 0 mm 1 mps 736 mmHg 68%
    11:00 +8°C° 0 mm 1 mps 736 mmHg 63%
    12:00 +7°C° 0 mm 2 mps 735 mmHg 61%
    13:00 +8°C° 0 mm 2 mps 734 mmHg 60%
    14:00 +8°C° 0 mm 3 mps 734 mmHg 59%
    15:00 +7°C° 0 mm 2 mps 733 mmHg 64%
    16:00 +6°C° 0 mm 2 mps 733 mmHg 69%
    17:00 +5°C° 0 mm 2 mps 733 mmHg 74%
    18:00 +5°C° 0 mm 2 mps 733 mmHg 76%
    19:00 +5°C° 0 mm 1 mps 732 mmHg 77%
    20:00 +5°C° 0 mm 1 mps 732 mmHg 79%
    21:00 +5°C° 0 mm 1 mps 732 mmHg 79%
    22:00 +5°C° 0 mm 1 mps 732 mmHg 79%
    23:00 +5°C° 0 mm 1 mps 732 mmHg 79%

    10 December, Tuesday

    Time Temperature Precipitation Wind Pressure Humidity
    00:00 +5°C° 0 mm 1 mps 732 mmHg 80%
    01:00 +6°C° 0 mm 1 mps 731 mmHg 81%
    02:00 +6°C° 0 mm 1 mps 731 mmHg 83%
    03:00 +4°C° 0 mm 2 mps 731 mmHg 85%
    04:00 +4°C° 0 mm 2 mps 731 mmHg 87%
    05:00 +4°C° 0 mm 2 mps 731 mmHg 90%
    06:00 +4°C° 0 mm 2 mps 732 mmHg 90%
    07:00 +4°C° 0 mm 2 mps 732 mmHg 91%
    08:00 +3°C° 0 mm 3 mps 732 mmHg 91%
    09:00 +5°C° 0 mm 2 mps 733 mmHg 83%
    10:00 +6°C° 0 mm 2 mps 733 mmHg 75%
    11:00 +8°C° 0 mm 2 mps 734 mmHg 68%
    12:00 +8°C° 0 mm 2 mps 734 mmHg 62%
    13:00 +9°C° 0 mm 2 mps 734 mmHg 57%
    14:00 +10°C° 0 mm 2 mps 734 mmHg 52%
    15:00 +9°C° 0 mm 3 mps 734 mmHg 55%
    16:00 +8°C° 0 mm 3 mps 735 mmHg 59%
    17:00 +7°C° 0 mm 3 mps 735 mmHg 62%
    18:00 +5°C° 0 mm 3 mps 736 mmHg 65%
    19:00 +4°C° 0 mm 3 mps 736 mmHg 68%
    20:00 +4°C° 0 mm 3 mps 737 mmHg 71%
    21:00 +3°C° 0 mm 3 mps 738 mmHg 70%
    22:00 +4°C° 0 mm 2 mps 738 mmHg 69%
    23:00 +4°C° 0 mm 2 mps 739 mmHg 68%

    11 December, Wednesday

    Time Temperature Precipitation Wind Pressure Humidity
    00:00 +4°C° 0 mm 2 mps 739 mmHg 68%
    01:00 +3°C° 0 mm 2 mps 740 mmHg 69%
    02:00 +4°C° 0 mm 1 mps 740 mmHg 69%
    03:00 +4°C° 0 mm 1 mps 740 mmHg 70%
    04:00 +3°C° 0 mm 1 mps 740 mmHg 70%
    05:00 +3°C° 0 mm 1 mps 741 mmHg 71%
    06:00 +3°C° 0 mm 1 mps 741 mmHg 71%
    07:00 +3°C° 0 mm 1 mps 741 mmHg 71%
    08:00 +2°C° 0 mm 1 mps 742 mmHg 72%
    09:00 +4°C° 0 mm 1 mps 742 mmHg 66%
    10:00 +5°C° 0 mm 1 mps 742 mmHg 60%
    11:00 +7°C° 0 mm 1 mps 743 mmHg 54%
    12:00 +7°C° 0 mm 1 mps 742 mmHg 53%
    13:00 +7°C° 0 mm 2 mps 742 mmHg 51%
    14:00 +8°C° 0 mm 2 mps 741 mmHg 50%
    15:00 +6°C° 0 mm 2 mps 741 mmHg 55%
    16:00 +5°C° 0 mm 2 mps 741 mmHg 61%
    17:00 +4°C° 0 mm 2 mps 741 mmHg 66%
    18:00 +5°C° 0 mm 1 mps 741 mmHg 68%
    19:00 +4°C° 0 mm 1 mps 741 mmHg 69%
    20:00 +4°C° 0 mm 1 mps 741 mmHg 71%
    21:00 +3°C° 0 mm 1 mps 741 mmHg 71%
    22:00 +3°C° 0 mm 1 mps 740 mmHg 72%
    23:00 +3°C° 0 mm 1 mps 740 mmHg 72%
    Show more